www.pogodaiklimat.ru

Погода и климат >> Архив погоды >> Мали >> Kayes


ПОГОДА в Kayes

  • Прогноз погоды в Kayes
  • Монитор погоды в Kayes
  • Климат города

АРХИВ ПОГОДЫ в Kayes

Время (UTC), дата Ветер
(напр.,м/с)
 
Видим.   Явления Облачность Т
(С)
Тd
(С)
f
(%)
Тe
(С)
Тes
(С)
Комфортность P
(гПа)
Po
(гПа)
Тmin
(С)
Tmax
(С)
R
(мм)
R24
(мм)
S
(см)
12 17.04 СВ 4 10 км ясно +39.9 +6.6 13 +37 +51 опасность
солнечного
удара
1011.7 1005.7
15 17.04 ЮВ 2 10 км ясно +42.0 +8.9 14 +40 +56 опасность
солнечного
удара
1009.1 1003.0
18 17.04 С 3 10 км ясно +41.7 +9.2 14 +40 +41 очень
жарко
1008.7 1002.5 +43.0
21 17.04 С 2 10 км 3/0
[Ci sp]
+35.2 +7.9 19 +33 +33 жарко 1009.5 1003.3
00 18.04 С 3 10 км 3/0
[Ci sp]
+32.6 +5.3 18 +30 +30 жарко 1011.0 1004.9
03 18.04 ЮЗ 3 10 км 3/0
[Ci sp]
+28.8 +7.3 26 +28 +28 жарко 1009.6 1003.5
06 18.04 СЗ 3 10 км 4/0
[Ci sp]
+26.2 +7.3 30 +26 +26 жарко 1010.9 1004.7 +23.6
09 18.04 ЮВ 3 8000 м 4/0
[Ci sp]
+38.4 +5.4 13 +36 +41 очень
жарко
1013.1 1006.9
12 18.04 В 3 10 км 4/0
[Ci sp]
+39.5 +6.7 14 +37 +53 опасность
солнечного
удара
1012.7 1006.6
15 18.04 ЮВ 2 10 км 4/0
[Ci sp]
+41.0 -0.3 8 +37 +52 опасность
солнечного
удара
1009.5 1003.4
18 18.04 В 1 10 км ясно +41.0 -0.3 8 +37 +39 очень
жарко
1008.6 1002.4 +43.2
21 18.04 СЗ 3 10 км ясно +36.0 +5.1 15 +33 +33 жарко 1010.5 1004.4
00 19.04 З 2 10 км ясно +31.5 +7.2 22 +30 +30 жарко 1011.8 1005.7
03 19.04 З 3 10 км ясно +29.0 +8.2 27 +28 +28 жарко 1010.7 1004.6
06 19.04 ЮЗ 3 10 км ясно +27.3 +8.8 31 +27 +27 жарко 1011.8 1005.6 +27.3
09 19.04 З 5 10 км ясно +32.7 +7.0 20 +31 +35 жарко 1013.2 1007.0
12 19.04 З 3 10 км ясно +36.4 +8.2 18 +35 +52 опасность
солнечного
удара
1013.0 1006.7
15 19.04 СЗ 4 10 км ясно +39.3 +10.9 18 +38 +48 очень
жарко
1009.9 1003.8
18 19.04 СЗ 6 10 км ясно +39.0 +8.2 16 +37 +38 очень
жарко
1005.9 1002.7 +40.6
21 19.04 З 3 10 км ясно +34.4 +8.2 20 +33 +33 жарко 1010.4 1004.2
00 20.04 З 2 10 км ясно +30.6 +8.2 25 +30 +30 жарко 1011.3 1005.1
03 20.04 З 2 10 км ясно +27.4 +8.2 30 +27 +27 жарко 1009.6 1003.4
06 20.04 З 3 10 км ясно +25.4 +8.2 34 +26 +26 жарко 1009.9 1003.7 +25.4
09 20.04 СЗ 5 10 км ясно +29.4 +12.5 35 +30 +34 жарко 1011.6 1005.4
12 20.04 З 5 10 км ясно +35.5 +13.5 27 +36 +47 очень
жарко
1011.2 1005.0
15 20.04 З 5 10 км 6/0
[Ci sp]
+38.6 +10.9 19 +38 +45 очень
жарко
1008.4 1002.2
18 20.04 З 4 10 км 6/0
[Ci sp]
+38.4 +10.0 18 +37 +38 очень
жарко
1007.7 1001.5 +39.6
21 20.04 СЗ 3 10 км 4/0
[Ci sp]
+33.5 +10.7 25 +33 +33 жарко 1009.0 1002.8
00 21.04 СЗ 3 10 км ясно +31.2 +8.9 25 +30 +30 жарко 1010.0 1003.8
03 21.04 ЮЗ 2 10 км ясно +27.3 +8.8 31 +27 +27 жарко 1008.6 1002.4
06 21.04 ЮЗ 2 10 км 5/0
[Ci sp]
+26.3 +8.8 33 +27 +27 жарко 1009.1 1002.9 +26.3
09 21.04 СЗ 4 10 км 5/0
[Ci sp]
+31.0 +8.3 24 +30 +34 жарко 1010.1 1003.9
12 21.04 СЗ 3 10 км 5/0
[Ci sp]
+37.0 +9.1 18 +35 +51 опасность
солнечного
удара
1009.6 1003.5
15 21.04 СЗ 3 10 км 6/0
[Ac lent Ci sp]
+41.2 +9.1 15 +39 +50 очень
жарко
1007.4 1001.2
18 21.04 З 3 10 км 6/0
[Ci sp]
+40.2 +6.0 13 +38 +39 очень
жарко
1006.8 1000.7 +42.2
21 21.04 СЗ 3 10 км 5/0
[Ci sp]
+34.8 +9.5 21 +33 +33 жарко 1007.9 1001.7
00 22.04 СЗ 3 10 км 5/0
[Ci sp]
+33.0 +9.6 24 +32 +32 жарко 1008.7 1002.6
03 22.04 ЮЗ 3 10 км 5/0
[Ci sp]
+28.7 +9.5 30 +29 +29 жарко 1007.6 1001.5
06 22.04 ЮЗ 2 10 км 4/0
[Ci sp]
+26.4 +9.2 34 +27 +27 жарко 1009.1 1002.9 +26.3
09 22.04 З 5 10 км 5/0
[Ci sp]
+32.0 +6.6 20 +30 +34 жарко 1010.9 1005.1
12 22.04 СЗ 3 10 км 5/0
[]
+38.5 +8.7 16 +36 +50 очень
жарко
1010.9 1004.8
15 22.04 З 2 10 км ясно +41.4 +6.9 12 +39 +54 опасность
солнечного
удара
1007.0 1000.9
18 22.04 З 3 10 км ясно +41.0 +6.9 13 +39 +40 очень
жарко
1006.4 1000.3 +42.5
21 22.04 СЗ 3 10 км ясно +36.3 +9.5 20 +35 +35 очень
жарко
1009.0 1002.9
00 23.04 СЗ 3 10 км ясно +34.0 +8.3 21 +33 +33 жарко 1010.1 1004.0
03 23.04 З 3 10 км ясно +30.0 +7.4 24 +29 +29 жарко 1008.5 1002.4
06 23.04 ЮЗ 2 10 км 5/0
[Ci sp]
+28.0 +8.1 29 +28 +28 жарко 1010.2 1004.1 +28.0
09 23.04 З 3 10 км 4/0
[Ac lent Ci sp]
+33.0 +4.1 16 +30 +35 жарко 1011.7 1005.5
12 23.04 С 2 10 км ясно +39.8 +5.3 12 +37 +58 опасность
солнечного
удара
1010.3 1004.2
15 23.04 СЗ 3 10 км 8/0
[Ac lent Ci sp]
+43.0 +8.8 13 +41 +51 опасность
перегрева
1006.6 1000.5
18 23.04 СЗ 4 10 км 9/0
[Ac lent Ci sp]
+42.5 +9.6 14 +41 +41 опасность
перегрева
1006.1 1000.0 +43.8
21 23.04 СЗ 3 10 км 5/0
[Ci sp]
+37.4 +6.8 15 +35 +35 очень
жарко
1007.6 1001.5
00 24.04 З 3 10 км 5/0
[Ci sp]
+34.4 +9.9 22 +33 +33 жарко 1009.3 1003.2
03 24.04 З 3 10 км 4/0
[Ci sp]
+31.4 +7.9 23 +30 +30 жарко 1008.1 1002.0
06 24.04 З 2 10 км 6/0
[Ac lent Ci sp]
+30.2 +9.1 27 +30 +30 жарко 1009.4 1003.3 +30.2
09 24.04 З 4 10 км 5/0
[Ac lent]
+34.4 +7.9 20 +33 +36 жарко 1011.6 1005.5

 

Местоположение метеостанции Kayes (Мали): широта 14.43 долгота -11.43 высота над уровнем моря 47 м.

В архиве по умолчанию представлена погода в Kayes за последнюю неделю. Архивные данные за месяц целиком и за предыдущие месяцы, начиная с января 2011 года, Вы можете получить, выбрав интересующий диапазон дат из раскрывающегося списка и нажав кнопку "Ввод!".


*Определитесь, кто Вы:
робот инопланетянин человек

Внимание! Время в таблицах - всемирное. Для получения местного времени необходимо прибавить поправку, которая в Kayes равна 0 ч.

Смотрите также архив погоды в соседних городах и на ближайших метеорологических станциях:

Погода в Yelimane (Мали) (121 км)
Погода в Kenieba (Мали) (177 км)
Погода в Fatoto (Гамбия) (221 км)
Погода в Kedougou (Сенегал) (223 км)
Погода в Matam (Сенегал) (238 км)
Погода в Nioro Du Sahel (Мали) (241 км)
Погода в Kiffa (Мавритания) (245 км)
Погода в Tambacounda (Сенегал) (254 км)
Погода в Kita (Мали) (260 км)
Погода в Kaedi (Мавритания) (294 км)

Пояснения к столбцам:

Ветер - указаны скорость ветра в м/с - средняя за 10 мин, порывы в срок и между сроками (в фигурных скобках) и направление, откуда дует ветер: С - северный, СВ - северо-восточный, В - восточный, ЮВ - юго-восточный, Ю - южный, ЮЗ - юго-западный, З - западный, СЗ - северо-западный.
Видимость - горизонтальная дальность видимости в метрах или километрах. При видимости от 1 до 10 км при отсутствии осадков обычно наблюдается дымка, при ухудшении видимости до 1 км и менее - туман. В сухую погоду видимость может ухудшаться дымом, пылью или мглою.
Явления - указаны атмосферные явления, наблюдавшиеся в срок или в последний час перед сроком; фигурными скобками обозначены явления, наблюдавшиеся между сроками (за 1-3 часа до срока); квадратными скобками обозначены град или гололедные отложения с указанием их диаметра в мм.
Облачность - указаны через наклонную черту общая и нижняя облачность в баллах и высота нижней границы облаков в метрах; квадратными скобками обозначены формы облаков: Ci - перистые, Cs - перисто-слоистые, Cc - перисто-кучевые, Ac - высококучевые, As - высокослоистые, Sc - слоисто-кучевые, Ns - слоисто-дождевые, Cu - кучевые, Cb - кучево-дождевые. Подробнее классификацию облаков см. в Атласе облаков (PDF).
T - Температура воздуха - температура, измеренная на высоте 2 м над землей.
Td - Температура точки росы - температура, при понижении до которой содержащийся в воздухе водяной пар достигнет насыщения.
f - Относительная влажность воздуха - влажноcть воздуха, измеренная на высоте 2 м над землей.
Te - Эффективная температура - температура, которую ощущает одетый по сезону человек в тени. Характеристика душности погоды. При расчете учитывается влияние влажности воздуха и скорости ветра на теплоощущения человека.
Tes - Эффективная температура на солнце - температура, которую ощущает человек, с поправкой на солнечный нагрев. Характеристика знойности погоды. Зависит от высоты солнца над горизонтом, облачности и скорости ветра. Ночью, в пасмурную погоду, а также при ветре 12 м/с и более поправка равна нулю.
P - Атмосферное давление - приведенное к уровню моря атмосферное давление.
Po - Атмосферное давление - измеренное на уровне метеостанции атмосферное давление.
Tmin - Минимальная температура - минимум температуры воздуха на высоте 2 м над землей.
Tmax - Максимальная температура - максимум температуры воздуха на высоте 2 м над землей.
R - Количество осадков - Количество выпавших осадков за период времени, мм. При наведении курсора мыши на число - период времени, за который выпало указанное количество осадков.
R24 - Количество осадков - Количество выпавших осадков за 24 часа, мм.
S - Снежный покров - Высота снежного покрова, см. При наведении курсора мыши на число - состояние снежного покрова и степень покрытия местности в баллах.